Time,TemperatureF,DewpointF,PressureIn,WindDirection,WindDirectionDegrees,WindSpeedMPH,WindSpeedGustMPH,Humidity,HourlyPrecipIn,Conditions,Clouds,dailyrainin,SoftwareType,DateUTC
2013-02-27 00:01:00,28.6,27.7,29.64,NNE,23,7.0,11.0,97,-99.99,,,0.00,1-wire,2013-02-27 06:01:00,
2013-02-27 00:06:00,28.8,27.9,29.64,NNE,23,3.0,6.0,96,-99.99,,,0.00,1-wire,2013-02-27 06:06:00,
2013-02-27 00:11:00,28.6,27.8,29.64,NNE,23,6.0,16.0,97,-99.99,,,0.00,1-wire,2013-02-27 06:11:00,
2013-02-27 00:16:00,28.7,27.8,29.64,NNE,23,3.0,9.0,97,-99.99,,,0.00,1-wire,2013-02-27 06:16:00,
2013-02-27 00:22:00,28.6,27.8,29.64,NNE,24,5.0,11.0,97,-99.99,,,0.00,1-wire,2013-02-27 06:22:00,
2013-02-27 00:28:00,28.7,27.9,29.63,NNE,24,5.0,11.0,97,-99.99,,,0.00,1-wire,2013-02-27 06:28:00,
2013-02-27 00:34:00,28.7,27.8,29.63,NNE,24,6.0,13.0,97,-99.99,,,0.00,1-wire,2013-02-27 06:34:00,
2013-02-27 00:40:00,28.6,27.8,29.64,NNE,24,6.0,11.0,97,-99.99,,,0.00,1-wire,2013-02-27 06:40:00,
2013-02-27 00:45:00,28.8,27.9,29.64,NNE,24,3.0,8.0,96,-99.99,,,0.00,1-wire,2013-02-27 06:45:00,
2013-02-27 00:50:00,28.8,27.9,29.64,NNE,24,6.0,17.0,96,-99.99,,,0.00,1-wire,2013-02-27 06:50:00,
2013-02-27 00:55:00,28.7,27.9,29.64,NNE,20,5.0,14.0,97,-99.99,,,0.00,1-wire,2013-02-27 06:55:00,
2013-02-27 01:00:00,28.7,27.9,29.64,NNE,20,5.0,11.0,97,-99.99,,,0.00,1-wire,2013-02-27 07:00:00,
2013-02-27 01:05:00,28.8,27.9,29.64,NNE,20,5.0,12.0,96,-99.99,,,0.00,1-wire,2013-02-27 07:05:00,
2013-02-27 01:10:00,28.7,27.9,29.64,NNE,18,7.0,14.0,97,-99.99,,,0.00,1-wire,2013-02-27 07:10:00,
2013-02-27 01:15:00,28.7,27.8,29.64,NNE,18,6.0,9.0,96,-99.99,,,0.00,1-wire,2013-02-27 07:15:00,
2013-02-27 01:20:00,28.9,28.0,29.64,NNE,18,2.0,6.0,96,-99.99,,,0.00,1-wire,2013-02-27 07:20:00,
2013-02-27 01:25:00,28.6,27.8,29.64,North,11,5.0,8.0,97,-99.99,,,0.00,1-wire,2013-02-27 07:25:00,
2013-02-27 01:30:00,28.6,27.8,29.64,North,11,6.0,9.0,97,-99.99,,,0.00,1-wire,2013-02-27 07:30:00,
2013-02-27 01:35:00,28.7,27.8,29.64,North,11,4.0,6.0,97,-99.99,,,0.00,1-wire,2013-02-27 07:35:00,
2013-02-27 01:40:00,28.8,27.9,29.64,NNE,13,4.0,8.0,96,-99.99,,,0.00,1-wire,2013-02-27 07:40:00,
2013-02-27 01:45:00,28.6,27.8,29.64,NNE,13,6.0,11.0,97,-99.99,,,0.00,1-wire,2013-02-27 07:45:00,
2013-02-27 01:50:00,28.7,27.9,29.64,NNE,13,4.0,6.0,97,-99.99,,,0.00,1-wire,2013-02-27 07:50:00,
2013-02-27 01:55:00,28.6,27.8,29.64,NNE,12,4.0,9.0,97,-99.99,,,0.00,1-wire,2013-02-27 07:55:00,
2013-02-27 02:00:00,28.5,27.7,29.64,NNE,12,8.0,12.0,97,-99.99,,,0.00,1-wire,2013-02-27 08:00:00,
2013-02-27 02:05:00,28.7,27.8,29.64,NNE,12,5.0,9.0,96,-99.99,,,0.00,1-wire,2013-02-27 08:05:00,
2013-02-27 02:10:00,28.8,27.8,29.64,North,9,4.0,9.0,96,-99.99,,,0.00,1-wire,2013-02-27 08:10:00,
2013-02-27 02:15:00,28.9,27.9,29.64,North,9,5.0,9.0,96,-99.99,,,0.00,1-wire,2013-02-27 08:15:00,
2013-02-27 02:20:00,28.6,27.7,29.64,North,9,5.0,9.0,96,-99.99,,,0.00,1-wire,2013-02-27 08:20:00,
2013-02-27 02:25:00,28.8,27.9,29.64,NNE,23,3.0,9.0,96,-99.99,,,0.00,1-wire,2013-02-27 08:25:00,
2013-02-27 02:30:00,28.7,27.8,29.63,NNE,23,3.0,11.0,96,-99.99,,,0.00,1-wire,2013-02-27 08:30:00,
2013-02-27 02:35:00,28.7,27.8,29.63,NNE,23,3.0,6.0,96,-99.99,,,0.00,1-wire,2013-02-27 08:35:00,
2013-02-27 02:40:00,28.7,27.8,29.63,North,10,2.0,6.0,96,-99.99,,,0.00,1-wire,2013-02-27 08:40:00,
2013-02-27 02:45:00,28.5,27.7,29.63,North,10,5.0,11.0,97,-99.99,,,0.00,1-wire,2013-02-27 08:45:00,
2013-02-27 02:50:00,28.5,27.7,29.62,North,10,6.0,9.0,97,-99.99,,,0.00,1-wire,2013-02-27 08:50:00,
2013-02-27 02:56:00,28.5,27.6,29.62,North,10,5.0,9.0,97,-99.99,,,0.00,1-wire,2013-02-27 08:56:00,
2013-02-27 03:01:00,28.7,27.8,29.62,North,10,5.0,9.0,96,-99.99,,,0.00,1-wire,2013-02-27 09:01:00,
2013-02-27 03:06:00,28.6,27.7,29.62,NNE,14,3.0,9.0,96,-99.99,,,0.00,1-wire,2013-02-27 09:06:00,
2013-02-27 03:11:00,28.5,27.6,29.62,NNE,14,7.0,11.0,97,-99.99,,,0.00,1-wire,2013-02-27 09:11:00,
2013-02-27 03:16:00,28.4,27.5,29.62,NNE,14,6.0,11.0,97,-99.99,,,0.00,1-wire,2013-02-27 09:16:00,
2013-02-27 03:21:00,28.4,27.6,29.62,North,2,5.0,9.0,97,-99.99,,,0.00,1-wire,2013-02-27 09:21:00,
2013-02-27 03:27:00,28.6,27.8,29.62,North,2,4.0,9.0,97,-99.99,,,0.00,1-wire,2013-02-27 09:27:00,
2013-02-27 03:32:00,28.3,27.5,29.62,North,2,7.0,12.0,97,-99.99,,,0.00,1-wire,2013-02-27 09:32:00,
2013-02-27 03:37:00,28.4,27.5,29.62,North,4,5.0,11.0,97,-99.99,,,0.00,1-wire,2013-02-27 09:37:00,
2013-02-27 03:42:00,28.5,27.6,29.62,North,4,4.0,8.0,96,-99.99,,,0.00,1-wire,2013-02-27 09:42:00,
2013-02-27 03:47:00,28.6,27.6,29.62,North,4,5.0,9.0,96,-99.99,,,0.00,1-wire,2013-02-27 09:47:00,
2013-02-27 03:52:00,28.6,27.6,29.62,North,6,6.0,9.0,96,-99.99,,,0.00,1-wire,2013-02-27 09:52:00,
2013-02-27 03:57:00,28.5,27.6,29.62,North,6,6.0,11.0,96,-99.99,,,0.00,1-wire,2013-02-27 09:57:00,
2013-02-27 04:03:00,28.4,27.5,29.62,North,6,4.0,9.0,96,-99.99,,,0.00,1-wire,2013-02-27 10:03:00,
2013-02-27 04:08:00,28.5,27.5,29.62,North,6,4.0,9.0,96,-99.99,,,0.00,1-wire,2013-02-27 10:08:00,
2013-02-27 04:13:00,28.3,27.4,29.62,North,6,8.0,13.0,96,-99.99,,,0.00,1-wire,2013-02-27 10:13:00,
2013-02-27 04:18:00,28.3,27.4,29.62,North,6,7.0,11.0,96,-99.99,,,0.00,1-wire,2013-02-27 10:18:00,
2013-02-27 04:24:00,28.4,27.4,29.62,North,9,2.0,6.0,96,-99.99,,,0.00,1-wire,2013-02-27 10:24:00,
2013-02-27 04:29:00,28.2,27.3,29.62,North,9,7.0,13.0,97,-99.99,,,0.00,1-wire,2013-02-27 10:29:00,
2013-02-27 04:35:00,28.2,27.3,29.62,North,9,6.0,11.0,96,-99.99,,,0.00,1-wire,2013-02-27 10:35:00,
2013-02-27 04:41:00,28.3,27.5,29.62,NNE,15,7.0,14.0,97,-99.99,,,0.00,1-wire,2013-02-27 10:41:00,
2013-02-27 04:47:00,28.3,27.3,29.63,NNE,15,4.0,6.0,96,-99.99,,,0.00,1-wire,2013-02-27 10:47:00,
2013-02-27 04:52:00,28.3,27.4,29.62,North,7,4.0,9.0,96,-99.99,,,0.00,1-wire,2013-02-27 10:52:00,
2013-02-27 04:57:00,28.2,27.3,29.62,North,7,4.0,9.0,96,-99.99,,,0.00,1-wire,2013-02-27 10:57:00,
2013-02-27 05:02:00,28.3,27.4,29.62,North,7,5.0,9.0,96,-99.99,,,0.00,1-wire,2013-02-27 11:02:00,
2013-02-27 05:08:00,28.4,27.4,29.62,NNE,14,3.0,8.0,96,-99.99,,,0.00,1-wire,2013-02-27 11:08:00,
2013-02-27 05:13:00,28.4,27.4,29.62,NNE,14,4.0,8.0,96,-99.99,,,0.00,1-wire,2013-02-27 11:13:00,
2013-02-27 05:18:00,28.3,27.4,29.62,NNE,14,6.0,14.0,96,-99.99,,,0.00,1-wire,2013-02-27 11:18:00,
2013-02-27 05:23:00,28.3,27.3,29.62,North,3,4.0,9.0,96,-99.99,,,0.00,1-wire,2013-02-27 11:23:00,
2013-02-27 05:28:00,28.2,27.3,29.62,North,3,6.0,11.0,96,-99.99,,,0.00,1-wire,2013-02-27 11:28:00,
2013-02-27 05:34:00,28.3,27.3,29.62,North,3,5.0,9.0,96,-99.99,,,0.00,1-wire,2013-02-27 11:34:00,
2013-02-27 05:39:00,28.2,27.3,29.62,North,5,6.0,9.0,97,-99.99,,,0.00,1-wire,2013-02-27 11:39:00,
2013-02-27 05:44:00,28.3,27.4,29.62,North,5,4.0,9.0,96,-99.99,,,0.00,1-wire,2013-02-27 11:44:00,
2013-02-27 05:49:00,28.3,27.4,29.62,North,5,3.0,6.0,96,-99.99,,,0.00,1-wire,2013-02-27 11:49:00,
2013-02-27 05:55:00,28.2,27.3,29.62,North,1,5.0,11.0,96,-99.99,,,0.00,1-wire,2013-02-27 11:55:00,
2013-02-27 06:00:00,28.3,27.3,29.62,North,1,6.0,16.0,96,-99.99,,,0.00,1-wire,2013-02-27 12:00:00,
2013-02-27 06:05:00,28.3,27.3,29.63,North,1,8.0,12.0,96,-99.99,,,0.00,1-wire,2013-02-27 12:05:00,
2013-02-27 06:10:00,28.3,27.3,29.63,North,1,6.0,11.0,96,-99.99,,,0.00,1-wire,2013-02-27 12:10:00,
2013-02-27 06:15:00,28.5,27.4,29.63,North,1,4.0,9.0,96,-99.99,,,0.00,1-wire,2013-02-27 12:15:00,
2013-02-27 06:20:00,28.4,27.4,29.63,North,1,5.0,9.0,96,-99.99,,,0.00,1-wire,2013-02-27 12:20:00,
2013-02-27 06:25:00,28.4,27.3,29.63,North,9,5.0,11.0,96,-99.99,,,0.00,1-wire,2013-02-27 12:25:00,
2013-02-27 06:30:00,28.4,27.3,29.63,North,9,7.0,12.0,96,-99.99,,,0.00,1-wire,2013-02-27 12:30:00,
2013-02-27 06:35:00,28.5,27.4,29.63,North,9,2.0,6.0,95,-99.99,,,0.00,1-wire,2013-02-27 12:35:00,
2013-02-27 06:40:00,28.7,27.5,29.63,North,1,4.0,8.0,95,-99.99,,,0.00,1-wire,2013-02-27 12:40:00,
2013-02-27 06:45:00,28.5,27.4,29.63,North,1,4.0,8.0,95,-99.99,,,0.00,1-wire,2013-02-27 12:45:00,
2013-02-27 06:50:00,28.4,27.2,29.63,North,1,6.0,14.0,95,-99.99,,,0.00,1-wire,2013-02-27 12:50:00,
2013-02-27 06:55:00,28.5,27.3,29.64,North,5,5.0,11.0,95,-99.99,,,0.00,1-wire,2013-02-27 12:55:00,
2013-02-27 07:00:00,28.5,27.3,29.64,North,5,5.0,9.0,95,-99.99,,,0.00,1-wire,2013-02-27 13:00:00,
2013-02-27 07:05:00,28.5,27.2,29.64,North,5,5.0,8.0,95,-99.99,,,0.00,1-wire,2013-02-27 13:05:00,
2013-02-27 07:10:00,28.7,27.3,29.64,North,356,3.0,6.0,94,-99.99,,,0.00,1-wire,2013-02-27 13:10:00,
2013-02-27 07:15:00,28.6,27.2,29.64,North,356,5.0,9.0,94,-99.99,,,0.00,1-wire,2013-02-27 13:15:00,
2013-02-27 07:20:00,28.5,27.1,29.64,North,356,8.0,11.0,94,-99.99,,,0.00,1-wire,2013-02-27 13:20:00,
2013-02-27 07:25:00,28.7,27.2,29.64,North,6,3.0,8.0,94,-99.99,,,0.00,1-wire,2013-02-27 13:25:00,
2013-02-27 07:30:00,28.6,27.1,29.64,North,6,6.0,11.0,94,-99.99,,,0.00,1-wire,2013-02-27 13:30:00,
2013-02-27 07:35:00,29.0,27.3,29.64,North,6,3.0,10.0,93,-99.99,,,0.00,1-wire,2013-02-27 13:35:00,
2013-02-27 07:40:00,28.9,27.2,29.64,North,6,3.0,6.0,93,-99.99,,,0.00,1-wire,2013-02-27 13:40:00,
2013-02-27 07:45:00,29.1,27.2,29.64,North,6,3.0,6.0,93,-99.99,,,0.00,1-wire,2013-02-27 13:45:00,
2013-02-27 07:50:00,29.2,27.2,29.64,North,6,3.0,8.0,92,-99.99,,,0.00,1-wire,2013-02-27 13:50:00,
2013-02-27 07:55:00,29.1,27.1,29.65,North,0,4.0,8.0,92,-99.99,,,0.00,1-wire,2013-02-27 13:55:00,
2013-02-27 08:00:00,29.4,27.3,29.64,North,0,1.0,3.0,92,-99.99,,,0.00,1-wire,2013-02-27 14:00:00,
2013-02-27 08:05:00,29.2,26.9,29.65,North,0,3.0,8.0,91,-99.99,,,0.00,1-wire,2013-02-27 14:05:00,
2013-02-27 08:10:00,29.0,26.4,29.65,North,11,7.0,10.0,90,-99.99,,,0.00,1-wire,2013-02-27 14:10:00,
2013-02-27 08:15:00,29.1,26.1,29.65,North,11,6.0,9.0,89,-99.99,,,0.00,1-wire,2013-02-27 14:15:00,
2013-02-27 08:20:00,29.0,26.0,29.66,North,11,7.0,13.0,88,-99.99,,,0.00,1-wire,2013-02-27 14:20:00,
2013-02-27 08:25:00,29.2,26.2,29.65,NNE,14,3.0,6.0,88,-99.99,,,0.00,1-wire,2013-02-27 14:25:00,
2013-02-27 08:30:00,29.3,26.1,29.66,NNE,14,3.0,10.0,88,-99.99,,,0.00,1-wire,2013-02-27 14:30:00,
2013-02-27 08:35:00,29.2,26.3,29.66,NNE,14,5.0,14.0,88,-99.99,,,0.00,1-wire,2013-02-27 14:35:00,
2013-02-27 08:40:00,29.3,26.6,29.65,North,11,5.0,11.0,89,-99.99,,,0.00,1-wire,2013-02-27 14:40:00,
2013-02-27 08:46:00,29.3,26.6,29.65,North,11,4.0,6.0,90,-99.99,,,0.00,1-wire,2013-02-27 14:46:00,
2013-02-27 08:51:00,29.4,26.9,29.65,NNE,15,6.0,9.0,90,-99.99,,,0.00,1-wire,2013-02-27 14:51:00,
2013-02-27 08:56:00,29.4,27.1,29.65,NNE,15,3.0,8.0,91,-99.99,,,0.00,1-wire,2013-02-27 14:56:00,
2013-02-27 09:01:00,29.4,27.2,29.65,NNE,15,6.0,11.0,91,-99.99,,,0.00,1-wire,2013-02-27 15:01:00,
2013-02-27 09:07:00,29.7,27.5,29.65,NNE,12,3.0,6.0,91,-99.99,,,0.00,1-wire,2013-02-27 15:07:00,
2013-02-27 09:12:00,29.7,27.4,29.65,NNE,12,7.0,13.0,91,-99.99,,,0.00,1-wire,2013-02-27 15:12:00,
2013-02-27 09:17:00,29.8,27.6,29.65,NNE,12,5.0,10.0,91,-99.99,,,0.00,1-wire,2013-02-27 15:17:00,
2013-02-27 09:22:00,29.8,27.7,29.65,North,7,6.0,9.0,92,-99.99,,,0.00,1-wire,2013-02-27 15:22:00,
2013-02-27 09:27:00,30.0,27.7,29.65,North,7,3.0,6.0,91,-99.99,,,0.00,1-wire,2013-02-27 15:27:00,
2013-02-27 09:32:00,30.1,27.7,29.65,North,7,7.0,14.0,91,-99.99,,,0.00,1-wire,2013-02-27 15:32:00,
2013-02-27 09:37:00,30.5,28.0,29.65,North,4,4.0,8.0,90,-99.99,,,0.00,1-wire,2013-02-27 15:37:00,
2013-02-27 09:42:00,30.2,27.5,29.65,North,4,8.0,14.0,90,-99.99,,,0.00,1-wire,2013-02-27 15:42:00,
2013-02-27 09:47:00,30.4,27.6,29.64,North,4,4.0,6.0,89,-99.99,,,0.00,1-wire,2013-02-27 15:47:00,
2013-02-27 09:52:00,30.7,27.5,29.64,NNE,17,4.0,8.0,88,-99.99,,,0.00,1-wire,2013-02-27 15:52:00,
2013-02-27 09:58:00,30.7,27.2,29.64,NNE,17,4.0,9.0,87,-99.99,,,0.00,1-wire,2013-02-27 15:58:00,
2013-02-27 10:03:00,30.5,26.8,29.64,NNE,17,8.0,14.0,86,-99.99,,,0.00,1-wire,2013-02-27 16:03:00,
2013-02-27 10:09:00,30.8,27.0,29.64,North,7,7.0,16.0,86,-99.99,,,0.00,1-wire,2013-02-27 16:09:00,
2013-02-27 10:14:00,30.8,27.1,29.64,North,7,3.0,9.0,86,-99.99,,,0.00,1-wire,2013-02-27 16:14:00,
2013-02-27 10:19:00,30.9,27.1,29.64,North,7,3.0,9.0,86,-99.99,,,0.00,1-wire,2013-02-27 16:19:00,
2013-02-27 10:24:00,30.7,26.7,29.64,North,7,6.0,10.0,85,-99.99,,,0.00,1-wire,2013-02-27 16:24:00,
2013-02-27 10:29:00,30.8,26.9,29.64,North,7,10.0,14.0,85,-99.99,,,0.00,1-wire,2013-02-27 16:29:00,
2013-02-27 10:34:00,30.6,26.7,29.64,North,7,5.0,8.0,85,-99.99,,,0.00,1-wire,2013-02-27 16:34:00,
2013-02-27 10:39:00,30.7,26.7,29.64,NNE,13,4.0,8.0,85,-99.99,,,0.00,1-wire,2013-02-27 16:39:00,
2013-02-27 10:44:00,30.5,26.5,29.64,NNE,13,6.0,13.0,85,-99.99,,,0.00,1-wire,2013-02-27 16:44:00,
2013-02-27 10:49:00,30.8,27.0,29.64,NNE,13,5.0,9.0,85,-99.99,,,0.00,1-wire,2013-02-27 16:49:00,
2013-02-27 10:54:00,30.8,27.0,29.64,North,8,5.0,8.0,86,-99.99,,,0.00,1-wire,2013-02-27 16:54:00,
2013-02-27 10:59:00,30.8,26.9,29.64,North,8,6.0,10.0,85,-99.99,,,0.00,1-wire,2013-02-27 16:59:00,
2013-02-27 11:04:00,30.8,26.8,29.64,North,8,9.0,14.0,85,-99.99,,,0.00,1-wire,2013-02-27 17:04:00,
2013-02-27 11:09:00,31.1,27.2,29.65,North,6,4.0,6.0,85,-99.99,,,0.00,1-wire,2013-02-27 17:09:00,
2013-02-27 11:14:00,31.2,27.2,29.65,North,6,3.0,6.0,85,-99.99,,,0.00,1-wire,2013-02-27 17:14:00,
2013-02-27 11:19:00,31.1,27.0,29.65,North,6,7.0,11.0,85,-99.99,,,0.00,1-wire,2013-02-27 17:19:00,
2013-02-27 11:24:00,31.2,27.1,29.65,North,4,3.0,6.0,84,-99.99,,,0.00,1-wire,2013-02-27 17:24:00,
2013-02-27 11:29:00,31.3,27.5,29.66,North,4,2.0,8.0,85,-99.99,,,0.00,1-wire,2013-02-27 17:29:00,
2013-02-27 11:34:00,31.3,27.5,29.65,North,4,3.0,6.0,85,-99.99,,,0.00,1-wire,2013-02-27 17:34:00,
2013-02-27 11:40:00,31.2,27.4,29.65,North,11,4.0,8.0,86,-99.99,,,0.00,1-wire,2013-02-27 17:40:00,
2013-02-27 11:45:00,31.1,27.3,29.66,North,11,6.0,11.0,86,-99.99,,,0.00,1-wire,2013-02-27 17:45:00,
2013-02-27 11:51:00,31.4,27.8,29.66,North,4,3.0,6.0,86,-99.99,,,0.00,1-wire,2013-02-27 17:51:00,
2013-02-27 11:56:00,31.1,27.4,29.65,North,4,7.0,11.0,86,-99.99,,,0.00,1-wire,2013-02-27 17:56:00,
2013-02-27 12:02:00,31.3,27.7,29.65,North,4,3.0,9.0,86,-99.99,,,0.00,1-wire,2013-02-27 18:02:00,
2013-02-27 12:07:00,31.5,28.0,29.64,North,5,3.0,8.0,87,-99.99,,,0.00,1-wire,2013-02-27 18:07:00,
2013-02-27 12:13:00,31.5,27.9,29.65,North,5,7.0,14.0,87,-99.99,,,0.00,1-wire,2013-02-27 18:13:00,
2013-02-27 12:18:00,31.5,28.1,29.65,North,5,3.0,6.0,87,-99.99,,,0.00,1-wire,2013-02-27 18:18:00,
2013-02-27 12:23:00,31.6,28.1,29.65,NNE,12,4.0,9.0,87,-99.99,,,0.00,1-wire,2013-02-27 18:23:00,
2013-02-27 12:29:00,32.0,28.4,29.65,NNE,12,4.0,8.0,86,-99.99,,,0.00,1-wire,2013-02-27 18:29:00,
2013-02-27 12:35:00,31.7,27.6,29.64,NNE,12,8.0,17.0,85,-99.99,,,0.00,1-wire,2013-02-27 18:35:00,
2013-02-27 12:40:00,31.8,27.8,29.65,North,7,6.0,14.0,85,-99.99,,,0.00,1-wire,2013-02-27 18:40:00,
2013-02-27 12:45:00,31.7,27.6,29.65,North,7,9.0,13.0,85,-99.99,,,0.00,1-wire,2013-02-27 18:45:00,
2013-02-27 12:51:00,31.9,27.8,29.65,North,5,6.0,12.0,85,-99.99,,,0.00,1-wire,2013-02-27 18:51:00,
2013-02-27 12:56:00,32.5,28.4,29.65,North,5,4.0,14.0,85,-99.99,,,0.00,1-wire,2013-02-27 18:56:00,
2013-02-27 13:01:00,32.5,28.5,29.65,North,5,6.0,16.0,85,-99.99,,,0.00,1-wire,2013-02-27 19:01:00,
2013-02-27 13:06:00,32.2,28.2,29.65,North,4,7.0,10.0,85,-99.99,,,0.00,1-wire,2013-02-27 19:06:00,
2013-02-27 13:11:00,32.4,28.6,29.65,North,4,6.0,13.0,86,-99.99,,,0.00,1-wire,2013-02-27 19:11:00,
2013-02-27 13:16:00,31.8,27.9,29.65,North,4,6.0,10.0,85,-99.99,,,0.00,1-wire,2013-02-27 19:16:00,
2013-02-27 13:21:00,32.2,28.5,29.65,North,3,4.0,14.0,86,-99.99,,,0.00,1-wire,2013-02-27 19:21:00,
2013-02-27 13:26:00,32.1,28.4,29.66,North,3,8.0,16.0,86,-99.99,,,0.00,1-wire,2013-02-27 19:26:00,
2013-02-27 13:31:00,31.9,28.3,29.65,North,3,8.0,14.0,86,-99.99,,,0.00,1-wire,2013-02-27 19:31:00,
2013-02-27 13:36:00,32.0,28.6,29.65,North,2,5.0,11.0,87,-99.99,,,0.00,1-wire,2013-02-27 19:36:00,
2013-02-27 13:41:00,31.8,28.4,29.66,North,2,6.0,10.0,87,-99.99,,,0.00,1-wire,2013-02-27 19:41:00,
2013-02-27 13:46:00,32.3,29.5,29.65,North,2,3.0,8.0,89,-99.99,,,0.00,1-wire,2013-02-27 19:46:00,
2013-02-27 13:51:00,31.9,28.8,29.65,North,0,6.0,13.0,88,-99.99,,,0.00,1-wire,2013-02-27 19:51:00,
2013-02-27 13:56:00,31.9,28.9,29.65,North,0,3.0,8.0,88,-99.99,,,0.00,1-wire,2013-02-27 19:56:00,
2013-02-27 14:01:00,32.1,29.2,29.66,North,0,5.0,8.0,89,-99.99,,,0.00,1-wire,2013-02-27 20:01:00,
2013-02-27 14:06:00,32.2,29.2,29.65,North,357,4.0,6.0,89,-99.99,,,0.00,1-wire,2013-02-27 20:06:00,
2013-02-27 14:11:00,32.3,29.3,29.66,North,357,3.0,6.0,88,-99.99,,,0.00,1-wire,2013-02-27 20:11:00,
2013-02-27 14:16:00,32.5,29.5,29.66,North,357,3.0,8.0,89,-99.99,,,0.00,1-wire,2013-02-27 20:16:00,
2013-02-27 14:21:00,32.4,29.3,29.66,North,0,5.0,10.0,88,-99.99,,,0.00,1-wire,2013-02-27 20:21:00,
2013-02-27 14:26:00,32.8,29.7,29.66,North,0,4.0,8.0,88,-99.99,,,0.00,1-wire,2013-02-27 20:26:00,
2013-02-27 14:31:00,32.7,29.4,29.66,North,0,4.0,10.0,88,-99.99,,,0.00,1-wire,2013-02-27 20:31:00,
2013-02-27 14:36:00,32.8,29.5,29.66,North,2,5.0,13.0,87,-99.99,,,0.00,1-wire,2013-02-27 20:36:00,
2013-02-27 14:41:00,32.7,29.2,29.66,North,2,6.0,11.0,87,-99.99,,,0.00,1-wire,2013-02-27 20:41:00,
2013-02-27 14:46:00,32.6,29.1,29.66,North,2,5.0,8.0,87,-99.99,,,0.00,1-wire,2013-02-27 20:46:00,
2013-02-27 14:51:00,32.8,29.5,29.67,North,357,3.0,8.0,88,-99.99,,,0.00,1-wire,2013-02-27 20:51:00,
2013-02-27 14:56:00,32.8,29.5,29.66,North,357,3.0,6.0,87,-99.99,,,0.00,1-wire,2013-02-27 20:56:00,
2013-02-27 15:01:00,32.5,29.1,29.67,North,357,7.0,14.0,87,-99.99,,,0.00,1-wire,2013-02-27 21:01:00,
2013-02-27 15:06:00,32.3,28.9,29.67,North,4,4.0,6.0,87,-99.99,,,0.00,1-wire,2013-02-27 21:06:00,
2013-02-27 15:11:00,32.4,29.1,29.68,North,4,3.0,8.0,87,-99.99,,,0.00,1-wire,2013-02-27 21:11:00,
2013-02-27 15:17:00,32.5,29.4,29.68,North,4,4.0,6.0,88,-99.99,,,0.00,1-wire,2013-02-27 21:17:00,
2013-02-27 15:22:00,32.5,29.6,29.68,North,355,4.0,11.0,89,-99.99,,,0.00,1-wire,2013-02-27 21:22:00,
2013-02-27 15:28:00,32.8,29.9,29.68,North,355,4.0,11.0,89,-99.99,,,0.00,1-wire,2013-02-27 21:28:00,
2013-02-27 15:33:00,32.6,29.7,29.68,North,355,5.0,11.0,89,-99.99,,,0.00,1-wire,2013-02-27 21:33:00,
2013-02-27 15:39:00,32.6,29.6,29.68,North,357,5.0,9.0,88,-99.99,,,0.01,1-wire,2013-02-27 21:39:00,
2013-02-27 15:44:00,32.6,29.6,29.68,North,357,4.0,8.0,89,-99.99,,,0.01,1-wire,2013-02-27 21:44:00,
2013-02-27 15:50:00,32.5,29.5,29.68,North,357,4.0,9.0,89,-99.99,,,0.01,1-wire,2013-02-27 21:50:00,
2013-02-27 15:55:00,32.3,29.3,29.69,North,3,5.0,9.0,89,-99.99,,,0.01,1-wire,2013-02-27 21:55:00,
2013-02-27 16:01:00,32.4,29.4,29.69,North,3,4.0,8.0,89,-99.99,,,0.01,1-wire,2013-02-27 22:01:00,
2013-02-27 16:06:00,32.3,29.4,29.69,North,1,6.0,10.0,89,-99.99,,,0.01,1-wire,2013-02-27 22:06:00,
2013-02-27 16:12:00,32.5,29.6,29.69,North,1,5.0,11.0,89,-99.99,,,0.01,1-wire,2013-02-27 22:12:00,
2013-02-27 16:17:00,32.6,29.7,29.69,North,1,4.0,10.0,89,-99.99,,,0.01,1-wire,2013-02-27 22:17:00,
2013-02-27 16:22:00,32.3,29.4,29.70,North,350,3.0,6.0,89,-99.99,,,0.01,1-wire,2013-02-27 22:22:00,
2013-02-27 16:27:00,32.4,29.6,29.70,North,350,3.0,6.0,90,-99.99,,,0.01,1-wire,2013-02-27 22:27:00,
2013-02-27 16:32:00,32.2,29.5,29.70,North,350,5.0,9.0,90,-99.99,,,0.01,1-wire,2013-02-27 22:32:00,
2013-02-27 16:37:00,31.9,29.2,29.70,North,350,5.0,9.0,90,-99.99,,,0.01,1-wire,2013-02-27 22:37:00,
2013-02-27 16:42:00,31.9,29.3,29.70,North,350,5.0,11.0,90,-99.99,,,0.01,1-wire,2013-02-27 22:42:00,
2013-02-27 16:48:00,32.0,29.7,29.71,North,350,2.0,6.0,91,-99.99,,,0.01,1-wire,2013-02-27 22:48:00,
2013-02-27 16:53:00,32.0,29.7,29.71,North,350,4.0,9.0,91,-99.99,,,0.01,1-wire,2013-02-27 22:53:00,
2013-02-27 16:58:00,32.0,29.8,29.71,North,350,4.0,11.0,91,-99.99,,,0.01,1-wire,2013-02-27 22:58:00,
2013-02-27 17:03:00,32.1,30.0,29.71,North,350,4.0,8.0,92,-99.99,,,0.01,1-wire,2013-02-27 23:03:00,
2013-02-27 17:08:00,32.1,29.9,29.71,NNW,342,3.0,6.0,92,-99.99,,,0.01,1-wire,2013-02-27 23:08:00,
2013-02-27 17:13:00,32.0,29.9,29.71,NNW,342,4.0,8.0,92,-99.99,,,0.01,1-wire,2013-02-27 23:13:00,
2013-02-27 17:18:00,32.2,30.0,29.71,NNW,342,3.0,6.0,92,-99.99,,,0.01,1-wire,2013-02-27 23:18:00,
2013-02-27 17:23:00,32.2,30.0,29.71,NNW,344,4.0,8.0,92,-99.99,,,0.01,1-wire,2013-02-27 23:23:00,
2013-02-27 17:28:00,32.1,30.0,29.71,NNW,344,3.0,6.0,92,-99.99,,,0.01,1-wire,2013-02-27 23:28:00,
2013-02-27 17:33:00,32.3,30.2,29.72,NNW,344,2.0,6.0,92,-99.99,,,0.01,1-wire,2013-02-27 23:33:00,
2013-02-27 17:38:00,32.2,30.1,29.71,NNW,346,2.0,6.0,92,-99.99,,,0.01,1-wire,2013-02-27 23:38:00,
2013-02-27 17:43:00,32.0,29.9,29.72,NNW,346,3.0,6.0,92,-99.99,,,0.01,1-wire,2013-02-27 23:43:00,
2013-02-27 17:48:00,32.1,29.9,29.72,NNW,346,1.0,3.0,92,-99.99,,,0.01,1-wire,2013-02-27 23:48:00,
2013-02-27 17:53:00,32.3,30.2,29.72,NNW,344,3.0,6.0,92,-99.99,,,0.01,1-wire,2013-02-27 23:53:00,
2013-02-27 17:59:00,32.1,30.1,29.73,NNW,344,3.0,9.0,92,-99.99,,,0.01,1-wire,2013-02-27 23:59:00,
2013-02-27 18:04:00,32.3,30.2,29.73,NNW,344,2.0,8.0,92,-99.99,,,0.01,1-wire,2013-02-28 00:04:00,
2013-02-27 18:09:00,32.2,30.0,29.73,North,351,2.0,6.0,91,-99.99,,,0.01,1-wire,2013-02-28 00:09:00,
2013-02-27 18:14:00,32.1,29.8,29.73,North,351,3.0,6.0,91,-99.99,,,0.01,1-wire,2013-02-28 00:14:00,
2013-02-27 18:20:00,32.1,29.8,29.74,North,351,2.0,6.0,91,-99.99,,,0.01,1-wire,2013-02-28 00:20:00,
2013-02-27 18:26:00,32.1,29.9,29.74,NNW,348,4.0,6.0,91,-99.99,,,0.01,1-wire,2013-02-28 00:26:00,
2013-02-27 18:31:00,32.2,30.0,29.74,NNW,348,2.0,5.0,91,-99.99,,,0.01,1-wire,2013-02-28 00:31:00,
2013-02-27 18:37:00,32.2,30.0,29.74,North,349,2.0,3.0,92,-99.99,,,0.01,1-wire,2013-02-28 00:37:00,
2013-02-27 18:42:00,32.2,30.1,29.74,North,349,3.0,6.0,92,-99.99,,,0.01,1-wire,2013-02-28 00:42:00,
2013-02-27 18:48:00,32.2,30.1,29.74,North,349,2.0,6.0,92,-99.99,,,0.01,1-wire,2013-02-28 00:48:00,
2013-02-27 18:54:00,32.3,30.2,29.74,NNW,346,4.0,8.0,92,-99.99,,,0.01,1-wire,2013-02-28 00:54:00,
2013-02-27 18:59:00,32.2,30.1,29.75,NNW,346,3.0,6.0,92,-99.99,,,0.01,1-wire,2013-02-28 00:59:00,
2013-02-27 19:05:00,32.3,30.4,29.75,NNW,346,3.0,6.0,93,-99.99,,,0.01,1-wire,2013-02-28 01:05:00,
2013-02-27 19:10:00,32.2,30.2,29.74,NNW,342,2.0,6.0,92,-99.99,,,0.01,1-wire,2013-02-28 01:10:00,
2013-02-27 19:16:00,32.2,30.2,29.75,NNW,342,4.0,6.0,92,-99.99,,,0.01,1-wire,2013-02-28 01:16:00,
2013-02-27 19:21:00,32.4,30.3,29.75,NNW,339,2.0,6.0,92,-99.99,,,0.01,1-wire,2013-02-28 01:21:00,
2013-02-27 19:26:00,32.2,30.2,29.75,NNW,339,4.0,9.0,92,-99.99,,,0.01,1-wire,2013-02-28 01:26:00,
2013-02-27 19:31:00,32.0,29.9,29.75,NNW,339,5.0,9.0,92,-99.99,,,0.01,1-wire,2013-02-28 01:31:00,
2013-02-27 19:36:00,32.1,30.0,29.75,NNW,339,3.0,8.0,92,-99.99,,,0.01,1-wire,2013-02-28 01:36:00,
2013-02-27 19:41:00,32.0,29.8,29.75,NNW,339,4.0,8.0,91,-99.99,,,0.01,1-wire,2013-02-28 01:41:00,
2013-02-27 19:46:00,32.1,29.9,29.75,NNW,339,6.0,11.0,91,-99.99,,,0.01,1-wire,2013-02-28 01:46:00,
2013-02-27 19:51:00,32.1,30.0,29.75,NNW,347,4.0,8.0,92,-99.99,,,0.01,1-wire,2013-02-28 01:51:00,
2013-02-27 19:56:00,31.9,29.8,29.75,NNW,347,4.0,9.0,92,-99.99,,,0.01,1-wire,2013-02-28 01:56:00,
2013-02-27 20:01:00,32.0,30.0,29.75,NNW,347,5.0,8.0,92,-99.99,,,0.01,1-wire,2013-02-28 02:01:00,
2013-02-27 20:06:00,32.0,30.2,29.75,NNW,340,4.0,8.0,93,-99.99,,,0.01,1-wire,2013-02-28 02:06:00,
2013-02-27 20:11:00,32.0,30.2,29.75,NNW,340,5.0,10.0,93,-99.99,,,0.01,1-wire,2013-02-28 02:11:00,
2013-02-27 20:16:00,32.0,30.2,29.75,NNW,340,5.0,11.0,93,-99.99,,,0.01,1-wire,2013-02-28 02:16:00,
2013-02-27 20:21:00,32.0,30.3,29.76,NNW,348,5.0,8.0,93,-99.99,,,0.01,1-wire,2013-02-28 02:21:00,
2013-02-27 20:26:00,32.2,30.4,29.75,NNW,348,4.0,8.0,93,-99.99,,,0.01,1-wire,2013-02-28 02:26:00,
2013-02-27 20:31:00,31.9,30.0,29.75,NNW,348,5.0,11.0,93,-99.99,,,0.01,1-wire,2013-02-28 02:31:00,
2013-02-27 20:36:00,31.9,30.0,29.75,NNW,348,3.0,6.0,93,-99.99,,,0.01,1-wire,2013-02-28 02:36:00,
2013-02-27 20:41:00,32.0,30.2,29.75,NNW,348,3.0,6.0,93,-99.99,,,0.01,1-wire,2013-02-28 02:41:00,
2013-02-27 20:46:00,32.0,30.1,29.76,NNW,348,5.0,11.0,93,-99.99,,,0.01,1-wire,2013-02-28 02:46:00,
2013-02-27 20:51:00,32.1,30.2,29.76,North,350,4.0,9.0,93,-99.99,,,0.01,1-wire,2013-02-28 02:51:00,
2013-02-27 20:56:00,32.1,30.3,29.76,North,350,3.0,6.0,93,-99.99,,,0.01,1-wire,2013-02-28 02:56:00,
2013-02-27 21:01:00,32.2,30.4,29.76,North,350,4.0,9.0,93,-99.99,,,0.01,1-wire,2013-02-28 03:01:00,
2013-02-27 21:07:00,32.1,30.2,29.76,North,0,3.0,8.0,93,-99.99,,,0.01,1-wire,2013-02-28 03:07:00,
2013-02-27 21:12:00,32.1,30.2,29.77,North,0,2.0,8.0,93,-99.99,,,0.01,1-wire,2013-02-28 03:12:00,
2013-02-27 21:17:00,32.0,30.1,29.77,North,0,4.0,8.0,93,-99.99,,,0.01,1-wire,2013-02-28 03:17:00,
2013-02-27 21:22:00,32.1,30.1,29.76,North,1,3.0,6.0,92,-99.99,,,0.01,1-wire,2013-02-28 03:22:00,
2013-02-27 21:27:00,32.0,30.0,29.76,North,1,5.0,9.0,92,-99.99,,,0.01,1-wire,2013-02-28 03:27:00,
2013-02-27 21:33:00,32.2,30.1,29.77,North,1,2.0,6.0,92,-99.99,,,0.01,1-wire,2013-02-28 03:33:00,
2013-02-27 21:38:00,32.2,30.1,29.77,North,1,3.0,6.0,92,-99.99,,,0.01,1-wire,2013-02-28 03:38:00,
2013-02-27 21:44:00,32.1,29.9,29.77,North,1,6.0,10.0,91,-99.99,,,0.01,1-wire,2013-02-28 03:44:00,
2013-02-27 21:49:00,32.2,30.0,29.77,North,1,3.0,6.0,91,-99.99,,,0.01,1-wire,2013-02-28 03:49:00,
2013-02-27 21:55:00,32.3,30.0,29.77,North,357,2.0,6.0,91,-99.99,,,0.01,1-wire,2013-02-28 03:55:00,
2013-02-27 22:01:00,32.3,29.8,29.77,North,357,2.0,6.0,90,-99.99,,,0.01,1-wire,2013-02-28 04:01:00,
2013-02-27 22:06:00,32.4,29.7,29.77,North,0,4.0,6.0,90,-99.99,,,0.01,1-wire,2013-02-28 04:06:00,
2013-02-27 22:12:00,32.4,29.5,29.77,North,0,3.0,6.0,89,-99.99,,,0.01,1-wire,2013-02-28 04:12:00,
2013-02-27 22:17:00,32.3,29.3,29.77,North,0,6.0,14.0,88,-99.99,,,0.01,1-wire,2013-02-28 04:17:00,
2013-02-27 22:22:00,32.4,29.3,29.77,North,3,3.0,6.0,88,-99.99,,,0.01,1-wire,2013-02-28 04:22:00,
2013-02-27 22:27:00,32.4,29.1,29.77,North,3,5.0,8.0,88,-99.99,,,0.01,1-wire,2013-02-28 04:27:00,
2013-02-27 22:32:00,32.4,29.1,29.77,North,3,4.0,9.0,88,-99.99,,,0.01,1-wire,2013-02-28 04:32:00,
2013-02-27 22:37:00,32.2,28.7,29.77,North,2,4.0,6.0,87,-99.99,,,0.01,1-wire,2013-02-28 04:37:00,
2013-02-27 22:42:00,32.5,29.0,29.77,North,2,4.0,6.0,87,-99.99,,,0.01,1-wire,2013-02-28 04:42:00,
2013-02-27 22:47:00,32.3,28.8,29.78,North,2,6.0,13.0,87,-99.99,,,0.01,1-wire,2013-02-28 04:47:00,
2013-02-27 22:53:00,32.5,29.0,29.78,North,2,3.0,6.0,87,-99.99,,,0.01,1-wire,2013-02-28 04:53:00,
2013-02-27 22:58:00,32.3,28.8,29.78,North,2,3.0,6.0,86,-99.99,,,0.01,1-wire,2013-02-28 04:58:00,
2013-02-27 23:00:00,32.4,28.8,29.78,North,2,3.0,6.0,86,-99.99,,,0.01,1-wire,2013-02-28 05:00:00,
2013-02-27 23:01:00,32.5,28.9,29.78,North,2,3.0,6.0,86,-99.99,,,0.01,1-wire,2013-02-28 05:01:00,
2013-02-27 23:03:00,32.4,28.8,29.78,North,2,5.0,9.0,86,-99.99,,,0.01,1-wire,2013-02-28 05:03:00,
2013-02-27 23:08:00,32.3,28.6,29.78,North,4,7.0,11.0,86,-99.99,,,0.01,1-wire,2013-02-28 05:08:00,
2013-02-27 23:13:00,32.4,28.8,29.78,North,4,4.0,6.0,86,-99.99,,,0.01,1-wire,2013-02-28 05:13:00,
2013-02-27 23:18:00,32.2,28.7,29.78,North,4,4.0,10.0,87,-99.99,,,0.01,1-wire,2013-02-28 05:18:00,
2013-02-27 23:23:00,32.3,28.8,29.78,North,357,6.0,9.0,87,-99.99,,,0.01,1-wire,2013-02-28 05:23:00,
2013-02-27 23:28:00,32.1,28.6,29.78,North,357,5.0,11.0,87,-99.99,,,0.01,1-wire,2013-02-28 05:28:00,
2013-02-27 23:33:00,32.1,28.8,29.78,North,357,4.0,8.0,87,-99.99,,,0.01,1-wire,2013-02-28 05:33:00,
2013-02-27 23:34:00,32.1,28.8,29.78,North,357,6.0,11.0,88,-99.99,,,0.01,1-wire,2013-02-28 05:34:00,
2013-02-27 23:39:00,32.1,28.9,29.78,North,354,5.0,9.0,88,-99.99,,,0.01,1-wire,2013-02-28 05:39:00,
2013-02-27 23:44:00,32.0,28.9,29.78,North,354,5.0,14.0,88,-99.99,,,0.01,1-wire,2013-02-28 05:44:00,
2013-02-27 23:49:00,32.1,29.2,29.78,North,354,4.0,9.0,89,-99.99,,,0.01,1-wire,2013-02-28 05:49:00,
2013-02-27 23:54:00,31.9,29.1,29.78,North,5,3.0,6.0,89,-99.99,,,0.01,1-wire,2013-02-28 05:54:00,
2013-02-27 23:59:00,31.9,29.1,29.78,North,5,4.0,6.0,89,-99.99,,,0.01,1-wire,2013-02-28 05:59:00,